Location: Bijele Vode
(45.2833°N, 16.2000°E)
Time: 00:41:24
(UTC+00:00)

Lacrosse 5 rocket - Pass Details

Date: 26 January 2021
Orbit: 465 x 630 km, 57.0° (Epoch: 06 March)

Event Time Altitude Azimuth Distance (km) Brightness Sun altitude
Exits shadow 04:45:00 18° 219° (SW) 1,267 2.9 -17.1°
Drops below altitude 10° 04:46:56 10° 189° (S) 1,665 3.8 -16.7°
Sets 04:49:28 0° 171° (S) 2,517 5.0 -16.3°
